This demonstration page uses our WeatherBlox Daily Observations layout. Learn more.

39.29038, -76.61219

Hourly Observations for July 9, 2018

Temp ( °F °C ) Dew Point ( °F °C ) Humidity (%) Winds ( mph kmh ) Pressure ( in mb ) Visibility ( mi km ) Precip ( " mm )
12:54 am 00:54 undefined 73 22.8 52 11.1 48 48 undefined N/A 30.29 1026 N/A 0 0
1:54 am 01:54 undefined 72 22.2 53 11.7 52 52 undefined N/A 30.28 1026 N/A 0 0
2:54 am 02:54 undefined 71 21.7 53 11.7 53 53 undefined N/A 30.28 1025 N/A 0 0
3:54 am 03:54 undefined 70 21.1 54 12.2 57 57 undefined N/A 30.27 1025 N/A 0 0
4:54 am 04:54 undefined 70 21.1 53 11.7 55 55 undefined N/A 30.27 1025 N/A 0 0
5:54 am 05:54 undefined 68 20 55 12.8 63 63 undefined N/A 30.27 1025 N/A 0 0
6:54 am 06:54 undefined 70 21.1 55 12.8 59 59 undefined N/A 30.27 1025 N/A 0 0
7:54 am 07:54 undefined 76 24.4 49 9.4 39 39 undefined N/A 30.27 1025 N/A 0 0
8:54 am 08:54 undefined 79 26.1 51 10.6 38 38 undefined N/A 30.27 1025 N/A 0 0
9:54 am 09:54 undefined 82 27.8 54 12.2 38 38 undefined N/A 30.25 1025 N/A 0 0
10:54 am 10:54 undefined 84 28.9 55 12.8 37 37 undefined N/A 30.23 1024 N/A 0 0
11:54 am 11:54 undefined 86 30 52 11.1 31 31 undefined N/A 30.22 1023 N/A 0 0
12:54 pm 12:54 undefined 87 30.6 53 11.7 31 31 undefined N/A 30.21 1023 N/A 0 0
1:54 pm 13:54 undefined 86 30 56 13.3 36 36 undefined N/A 30.18 1022 N/A 0 0
2:54 pm 14:54 undefined 87 30.6 56 13.3 35 35 undefined N/A 30.16 1021 N/A 0 0
3:54 pm 15:54 undefined 87 30.6 57 13.9 36 36 undefined N/A 30.14 1021 N/A 0 0
4:54 pm 16:54 undefined 88 31.1 58 14.4 36 36 undefined N/A 30.12 1020 N/A 0 0
5:54 pm 17:54 undefined 86 30 59 15 40 40 undefined N/A 30.1 1019 N/A 0 0
6:54 pm 18:54 undefined 85 29.4 58 14.4 40 40 undefined N/A 30.09 1019 N/A 0 0
7:54 pm 19:54 undefined 84 28.9 58 14.4 41 41 undefined N/A 30.1 1019 N/A 0 0
8:54 pm 20:54 undefined 83 28.3 57 13.9 41 41 undefined N/A 30.1 1019 N/A 0 0
9:54 pm 21:54 undefined 80 26.7 59 15 49 49 undefined N/A 30.11 1020 N/A 0 0
10:54 pm 22:54 undefined 79 26.1 60 15.6 52 52 undefined N/A 30.1 1019 N/A 0 0
11:54 pm 23:54 undefined 77 25 60 15.6 56 56 undefined N/A 30.09 1019 N/A 0 0

Powered by AerisWeather